Theta_e
277 279 281 283 285 287 288 290 294 297 297 298 299 296 296 296 296 296 296 295 296 295 295 293 293 291 291 290 287 286 283 282 281 279 280 281 284 284 285 284 284 284 283
276 278 279 281 282 284 286 288 289 292 294 295 295 294 294 294 294 295 294 294 294 293 293 292 292 290 288 288 288 286 285 284 281 280 279 279 282 284 284 283 284 285 283
275 275 277 278 279 281 283 286 288 289 291 294 294 293 293 293 293 293 294 292 293 293 293 291 291 289 288 287 287 286 285 285 283 281 278 277 277 279 280 282 282 282 283
273 273 274 276 277 279 281 283 286 288 288 289 292 293 292 292 292 291 292 291 291 292 291 292 291 289 289 288 287 287 285 284 283 280 276 274 276 278 278 277 277 277 278
273 273 272 274 276 278 279 280 282 285 287 288 288 289 291 291 291 290 290 290 290 289 289 290 290 289 290 290 289 286 285 285 281 279 277 273 273 273 278 277 276 272 270
271 271 273 273 275 275 277 278 280 281 283 286 286 287 286 289 291 293 291 289 288 287 287 287 289 286 288 291 291 290 289 286 284 281 278 279 275 278 277 277 274 273 274
270 271 271 272 273 273 275 276 277 278 280 281 282 285 285 287 290 290 291 288 286 286 286 286 285 287 285 288 291 291 290 291 290 287 283 281 277 280 279 276 273 274 272
268 269 269 270 271 272 273 273 274 276 278 279 279 280 282 284 289 290 290 287 286 282 284 285 286 285 286 286 287 286 286 287 287 287 285 283 281 281 278 276 275 271 267
267 267 268 268 269 271 270 271 272 273 275 277 279 279 279 280 287 288 289 285 281 280 280 282 285 285 287 289 286 285 283 283 289 289 288 288 287 285 279 276 269 272 269
266 266 267 267 267 269 269 270 271 272 274 276 277 278 278 278 283 286 287 285 285 284 284 283 284 284 288 290 286 286 283 285 284 283 284 286 286 284 284 274 275 271 271
265 265 266 266 266 268 268 269 269 270 272 273 275 276 276 276 279 284 285 283 284 284 283 283 283 288 289 290 289 286 286 285 286 283 281 280 280 282 274 271 273 273 270
263 263 263 264 265 266 266 267 267 268 269 270 272 274 275 275 278 281 282 283 284 283 283 284 283 286 289 290 289 289 290 286 284 281 280 280 280 278 272 270 270 269 270
261 260 261 262 263 264 264 264 264 266 267 268 269 271 271 273 275 279 279 281 281 281 282 284 288 287 288 289 290 289 285 283 282 281 281 281 281 279 272 269 267 267 267
256 259 260 260 260 261 263 263 263 264 265 266 267 268 269 271 273 275 276 277 278 279 281 281 285 287 287 286 283 288 282 283 282 282 282 279 276 275 274 270 268 267 269
257 256 257 259 259 260 261 261 262 264 266 266 267 268 267 268 271 275 275 275 277 279 279 279 282 282 282 283 283 285 283 281 281 278 276 275 275 275 273 271 269 268 269
256 257 257 258 258 258 258 258 263 265 267 268 269 269 270 271 273 274 275 276 278 279 276 275 278 282 281 282 283 284 283 281 281 278 277 276 275 275 273 272 268 270 270
255 256 256 256 256 256 256 256 255 258 262 264 265 267 268 269 271 272 273 274 275 276 272 274 278 281 282 282 283 283 282 282 282 280 278 277 275 275 273 272 272 271 270
251 253 254 254 254 255 255 255 254 253 253 254 259 262 265 266 267 269 270 271 267 268 268 270 272 274 275 281 282 283 283 282 282 281 280 278 276 275 274 273 273 273 272
250 252 252 253 253 253 253 253 252 252 252 252 253 256 258 262 264 265 266 262 261 263 265 267 270 270 272 274 276 283 283 283 282 282 281 279 278 276 275 275 274 274 272
247 249 251 250 250 249 251 251 251 250 251 251 251 252 250 250 252 254 256 258 257 261 262 263 265 267 269 271 272 273 282 283 282 282 281 280 279 278 277 275 274 273 273
248 248 250 250 250 250 249 249 250 250 250 250 251 253 260 259 257 254 252 255 255 257 259 260 261 262 264 267 269 273 272 282 282 281 281 280 279 278 278 277 275 275 274
248 249 248 247 249 250 250 250 250 250 250 250 251 252 260 255 253 253 253 254 255 256 257 258 258 259 262 263 265 267 270 271 280 281 281 280 279 278 278 277 275 274 273
249 249 249 249 250 250 250 250 250 250 250 250 251 251 251 251 251 251 252 253 253 254 255 256 257 258 260 262 265 267 268 271 272 274 280 280 279 278 278 276 276 274 273
247 248 249 250 250 250 250 250 251 251 251 251 251 251 251 252 252 252 252 253 253 253 253 255 256 257 259 260 261 262 263 266 270 269 269 279 279 278 278 276 275 274 273
246 247 248 249 249 249 250 250 250 250 250 250 250 251 251 251 251 252 252 253 253 253 253 254 255 255 255 255 257 259 260 263 264 266 269 270 278 278 278 277 275 274 274
250 250 250 250 250 250 250 250 250 251 250 251 251 251 251 251 251 252 252 252 252 253 253 254 254 253 253 255 255 257 259 263 264 267 269 271 273 278 278 276 275 274 273
Wind_Speed
19 18 18 17 17 14 12 11 8 3 1 6 9 7 8 9 9 10 8 10 12 11 10 12 13 8 8 6 4 3 4 4 4 3 1 0 3 5 4 3 4 4 3
18 18 18 17 17 17 15 14 12 9 2 0 2 5 6 6 7 10 9 9 12 12 13 11 12 8 9 8 7 7 5 5 4 5 3 2 3 4 3 3 4 2 2
18 18 19 19 18 17 16 15 13 12 9 4 3 5 6 7 7 7 9 9 11 11 12 13 12 11 10 7 8 8 5 4 3 4 3 0 0 1 1 0 1 2 2
17 17 19 19 19 17 15 15 14 13 12 10 5 3 4 5 6 6 7 7 9 9 10 12 11 13 13 13 10 10 7 6 4 3 2 3 2 1 2 2 2 1 2
16 18 18 18 18 17 17 16 15 14 12 10 9 7 3 4 4 7 7 8 8 8 8 10 10 12 14 15 11 10 11 7 4 3 3 2 2 2 3 3 2 2 1
15 17 17 18 18 18 18 17 16 16 16 12 11 9 8 5 13 7 7 6 7 7 8 8 8 10 11 18 17 20 18 13 8 5 3 4 4 4 4 4 3 1 2
13 14 16 16 17 18 17 17 17 17 15 15 15 12 9 7 14 10 4 5 5 6 6 6 5 5 8 9 13 18 17 19 14 12 8 6 5 8 7 4 3 3 3
14 14 15 16 15 16 15 16 16 13 14 12 13 13 11 10 21 11 8 4 4 5 6 7 8 7 8 10 11 11 10 10 8 8 6 7 4 8 5 5 6 5 2
12 14 13 15 14 14 15 15 14 13 12 11 11 13 13 12 25 25 8 1 2 3 3 4 6 6 12 16 12 11 8 5 8 11 9 11 14 17 13 8 2 3 0
11 12 12 12 13 12 12 13 12 12 11 10 11 11 13 13 23 26 20 5 2 1 1 3 8 7 13 19 11 12 11 11 11 8 7 10 13 12 15 3 7 4 3
7 9 10 11 12 11 11 10 11 11 11 10 10 9 10 12 14 26 26 10 8 3 2 2 3 10 13 19 17 9 11 10 14 10 8 7 7 7 3 3 3 4 4
6 8 9 9 9 9 11 9 9 9 9 9 9 7 6 10 16 20 24 24 22 8 7 4 3 8 12 17 15 13 12 14 9 8 9 8 8 7 4 3 5 4 3
7 8 7 8 8 9 9 9 8 7 6 6 7 7 8 8 7 18 21 22 20 11 9 13 11 6 9 10 16 13 11 7 8 8 9 8 7 7 8 5 5 5 4
4 5 7 7 6 6 6 6 6 5 6 7 7 7 8 7 7 8 9 10 14 12 15 11 10 6 4 4 2 9 6 6 8 8 7 6 7 7 6 4 3 3 3
6 4 4 4 6 7 7 6 7 6 8 8 7 7 9 8 7 16 14 9 9 11 13 7 6 1 1 1 2 2 5 5 5 4 5 7 6 7 5 5 3 3 3
8 6 5 5 4 6 6 6 10 14 15 17 18 14 8 17 20 20 20 18 17 17 7 6 6 4 2 2 3 4 4 6 5 5 6 7 8 8 7 6 3 4 4
7 9 7 7 6 6 6 7 8 8 14 15 17 18 19 19 21 21 20 19 18 13 4 5 6 5 3 3 4 5 5 6 7 7 6 7 7 7 10 8 6 5 3
5 7 6 6 6 6 6 7 6 7 8 6 10 15 18 19 20 20 20 18 7 3 4 5 6 6 6 5 3 4 4 5 7 7 8 8 8 9 8 9 8 7 6
4 4 4 5 5 6 6 7 7 7 7 8 6 8 10 18 20 18 16 4 5 4 3 5 5 5 6 6 7 3 4 5 6 7 7 8 9 9 8 7 8 10 7
4 8 7 4 4 4 5 6 7 7 8 7 7 7 3 3 4 6 4 4 3 5 5 5 5 5 5 6 7 6 5 5 6 6 7 8 8 9 9 9 9 9 8
3 4 7 5 5 5 5 5 6 6 8 8 10 9 18 10 6 3 3 3 4 6 6 6 5 6 6 6 6 7 6 4 6 6 7 8 8 9 8 9 9 9 8
5 5 4 5 6 6 7 7 7 7 8 9 10 11 21 7 6 6 7 7 7 7 6 7 6 5 6 6 6 7 7 6 6 5 6 7 8 8 9 9 9 9 9
5 5 6 6 6 8 8 7 8 8 9 9 9 9 8 8 8 7 8 8 7 7 7 6 6 6 5 6 7 6 7 5 4 8 5 7 8 8 9 9 10 10 10
4 6 7 7 6 7 8 8 8 10 10 10 9 9 9 9 9 10 9 7 7 6 6 7 7 8 8 7 6 6 6 7 6 7 9 6 8 10 8 9 10 11 11
5 6 6 8 8 8 8 8 9 9 9 9 9 9 9 9 10 10 9 8 8 7 8 7 7 8 10 11 12 12 10 12 10 10 7 8 8 12 10 10 11 11 11
7 7 8 7 8 8 8 9 9 9 10 9 9 10 10 10 10 10 9 9 8 8 9 7 8 11 11 10 11 12 12 13 11 12 8 7 8 8 9 11 15 11 14
Wind_Direction
354 353 360 4 6 9 15 9 2 5 337 173 177 161 167 171 174 182 180 179 188 184 184 187 195 172 186 178 161 145 155 142 146 284 75 151 154 167 181 193 225 253 281
358 356 4 6 9 12 12 8 2 353 352 268 162 158 160 170 175 186 179 181 191 187 190 186 197 177 182 172 175 173 175 171 135 153 185 174 177 198 168 197 235 261 272
2 3 6 10 9 9 7 5 10 7 358 344 166 182 177 178 178 192 193 183 195 194 192 194 196 179 185 176 175 172 165 159 140 125 158 92 128 99 128 267 284 302 272
1 7 6 7 9 7 6 7 8 11 13 3 336 253 204 187 191 193 189 185 196 196 192 199 192 186 191 181 179 179 158 151 143 113 111 136 132 32 95 121 321 325 303
2 6 5 1 3 5 10 10 9 10 14 12 15 7 328 199 199 194 193 196 197 195 191 199 194 193 197 186 172 174 161 157 139 139 124 112 153 145 180 165 171 258 327
6 1 359 2 2 3 4 7 11 14 11 11 15 17 23 14 12 253 203 194 194 191 196 201 197 187 188 183 185 176 175 166 170 147 147 176 190 180 156 156 147 80 315
7 4 357 358 360 360 358 0 5 9 11 13 10 10 23 20 15 11 283 201 188 192 188 187 191 189 176 179 182 174 177 181 175 168 167 184 164 182 142 151 153 148 198
9 5 358 356 355 354 355 357 356 358 6 11 8 6 8 7 9 9 346 194 192 194 190 187 190 183 185 172 167 169 178 184 166 173 165 167 158 148 144 160 151 124 78
6 357 352 351 349 356 352 350 347 347 357 359 6 5 5 1 13 13 8 153 168 216 202 182 186 184 192 180 173 179 172 177 155 157 159 151 149 149 144 118 109 113 86
358 350 346 343 346 351 344 344 342 341 341 345 354 4 3 360 5 16 16 9 5 333 279 245 207 194 194 191 185 180 180 189 155 136 137 142 143 151 159 118 151 136 141
341 338 340 343 340 346 340 339 339 340 336 342 346 350 355 358 354 13 16 15 6 356 332 276 251 236 207 198 193 185 194 149 164 144 138 136 139 143 116 111 121 133 141
335 330 331 332 335 340 334 336 331 335 336 335 335 333 356 352 355 5 8 10 6 1 7 331 295 254 226 209 197 197 175 149 146 150 153 163 161 150 147 129 111 87 54
326 317 311 317 322 332 329 330 327 331 332 329 337 339 340 345 347 358 356 358 360 358 350 340 340 287 241 217 204 196 156 153 152 162 179 173 165 139 125 98 67 82 88
270 288 305 310 309 311 317 309 312 316 327 324 330 331 330 331 338 347 348 343 347 348 346 333 316 304 235 186 176 181 161 171 171 176 171 129 121 141 148 143 131 149 111
307 283 277 298 310 313 307 301 301 299 302 306 317 322 320 320 325 329 332 331 327 327 331 325 323 346 132 131 141 156 156 156 161 140 137 141 151 150 152 155 118 142 149
310 308 310 305 304 303 301 301 304 307 312 317 316 311 310 310 315 317 318 320 321 324 326 315 315 298 212 186 182 177 166 175 171 137 148 157 163 163 157 163 129 162 156
299 310 313 312 304 301 311 311 316 322 318 316 317 317 314 310 311 313 313 315 317 329 305 302 297 308 251 209 204 193 182 180 162 165 160 169 162 160 159 172 167 159 149
275 280 285 293 298 303 306 306 304 308 314 308 309 310 310 315 314 311 312 312 313 324 312 305 306 327 330 313 204 202 186 175 182 176 171 168 171 167 171 176 179 180 165
275 270 269 278 277 275 283 289 292 295 293 296 301 292 299 313 316 314 318 325 304 302 305 310 330 334 322 323 331 255 193 190 188 182 179 173 172 172 180 178 177 176 152
256 258 261 261 269 269 276 279 286 286 291 294 292 287 277 311 290 292 276 285 292 299 301 299 307 316 324 321 323 326 285 195 193 186 180 177 176 180 180 174 174 173 182
251 251 254 266 263 264 260 257 264 272 277 282 282 280 286 291 303 265 278 281 277 282 281 281 286 297 301 302 309 316 331 281 197 190 182 178 174 179 179 177 173 171 174
250 257 237 236 253 254 252 250 250 248 251 258 274 280 292 295 275 266 265 267 269 268 267 272 273 263 275 284 290 293 298 306 301 196 188 180 178 177 174 176 172 170 165
238 251 255 253 248 256 257 249 250 250 253 252 256 268 273 270 268 251 242 240 237 244 251 251 260 268 262 267 270 273 281 307 299 340 227 186 183 179 176 177 173 166 169
261 263 268 270 265 261 258 261 256 253 255 260 259 257 260 261 261 262 258 251 242 235 235 246 248 254 263 263 271 274 280 294 320 326 331 269 189 181 177 175 175 176 168
246 256 257 261 262 261 264 259 260 256 253 252 256 255 257 257 261 264 266 263 255 248 243 238 241 244 249 254 254 258 262 273 278 281 294 300 250 190 181 177 174 172 170
248 247 251 255 257 255 256 261 260 256 254 252 249 249 248 248 250 253 254 253 252 249 245 241 237 233 242 253 255 256 258 261 257 254 244 256 283 207 185 179 174 173 171